Weather observations for the past three days for
Anderson, Anderson County Airport
Metric (Imperial)
Date Time (edt) Wind (kph) Vis. (km) Weather Sky Cond. Temperature (ºC) Relative Humidity Wind Chill (°C) Heat Index (°C) Pressure Precipitation (cm)
Air Dwpt 6 hour altimeter (cm) sea level (mb) 1 hr 3 hr 6 hr
Max. Min.
21 12:56 Vrbl 11 16.09 Partly Cloudy SCT047 30.6 17.8 46% 31 76.81 1023.1
21 11:56 SE 7 16.09 A Few Clouds FEW039 28.9 17.8 51% 30 76.86 1023.7
21 10:56 Vrbl 7 16.09 Fair CLR 27.8 18.3 56% 29 76.89 1024.1
21 09:56 NW 6 16.09 Fair CLR 26.7 18.9 62% 28 76.91 1024.2
21 08:56 Vrbl 6 16.09 Fair CLR 25 18.3 66% 26 76.91 1024.2
21 07:56 Calm 16.09 Fair CLR 22.8 17.8 22.8 18.9 74% 76.89 1024.2
21 06:56 Calm 16.09 Fair CLR 20 16.7 81% 76.91 1024.3
21 05:56 NE 6 16.09 Fair CLR 19.4 16.7 84% 76.89 1024.0
21 04:56 E 7 16.09 Fair CLR 20 16.7 81% 76.84 1023.5
21 03:56 E 7 16.09 Fair CLR 20 16.7 81% 76.84 1023.3
21 02:56 Calm 16.09 Fair CLR 21.1 16.7 76% 76.81 1023.2
21 01:56 Calm 16.09 Fair CLR 21.1 16.7 29.4 21.1 76% 76.84 1023.5
21 00:56 Calm 16.09 Fair CLR 21.7 16.7 73% 76.86 1023.7
20 23:56 Calm 16.09 Fair CLR 22.2 17.2 73% 76.86 1023.8
20 22:56 Calm 16.09 Fair CLR 23.9 17.2 66% 25 76.89 1023.8
20 21:56 Calm 16.09 Fair CLR 25 17.2 62% 26 76.86 1023.5
20 20:56 E 6 16.09 Fair CLR 26.7 16.7 54% 27 76.84 1023.2
20 19:56 E 11 16.09 Fair CLR 29.4 15.6 32.2 28.9 43% 29 76.81 1023.1
20 18:56 E 13 16.09 A Few Clouds FEW065 30 16.1 43% 30 76.81 1023.1
20 17:56 E 17 16.09 A Few Clouds FEW070 31.7 16.1 39% 32 76.84 1023.2
20 16:56 E 19 G 26 16.09 A Few Clouds FEW065 31.7 16.1 39% 32 76.86 1023.7
20 15:56 E 13 16.09 Partly Cloudy SCT060 31.1 16.7 42% 31 76.91 1024.3
20 14:56 E 19 G 30 16.09 Partly Cloudy SCT060 31.1 16.7 42% 31 76.96 1024.9
20 13:56 E 13 G 33 16.09 Mostly Cloudy SCT049 BKN060 29.4 17.2 30.6 22.8 48% 30 77.01 1025.8
20 12:56 SE 19 G 30 16.09 Mostly Cloudy BKN046 BKN055 30.6 17.2 45% 31 77.06 1026.3
20 11:56 NE 11 16.09 A Few Clouds FEW042 28.9 17.8 51% 30 77.09 1026.7
20 10:56 E 19 16.09 Fair CLR 28.9 17.8 51% 30 77.09 1026.7
20 09:56 E 15 16.09 Fair CLR 26.7 17.8 58% 28 77.09 1026.8
20 08:56 E 13 16.09 Mostly Cloudy BKN060 25 17.8 64% 26 77.09 1026.8
20 07:56 N 6 16.09 Overcast OVC060 22.8 17.8 22.8 20 74% 77.06 1026.2
20 06:56 Calm 16.09 Overcast OVC060 21.7 17.2 76% 77.01 1025.8
20 05:56 NE 6 16.09 Overcast OVC060 21.7 17.2 76% 76.99 1025.4
20 04:56 NE 6 16.09 Overcast OVC060 21.1 16.7 76% 76.96 1025.0
20 03:56 E 7 16.09 Fair CLR 20.6 16.7 78% 76.94 1024.7
20 02:56 E 9 16.09 Fair CLR 21.1 16.7 76% 76.89 1024.2
20 01:56 E 9 16.09 Fair CLR 21.7 16.7 27.8 21.7 73% 76.89 1024.0
20 00:56 SE 19 16.09 Fair CLR 23.9 16.1 62% 25 76.89 1024.2
19 23:56 NE 9 16.09 Fair CLR 25 16.1 58% 26 76.91 1024.4
19 22:56 NE 13 16.09 Fair CLR 25.6 16.7 58% 26 76.91 1024.4
19 21:56 NE 11 16.09 Fair CLR 25.6 16.7 58% 26 76.89 1024.0
19 20:56 NE 9 16.09 Fair CLR 26.7 16.7 54% 27 76.86 1023.6
19 19:56 NE 13 16.09 Fair CLR 27.8 16.7 30.6 27.8 51% 28 76.84 1023.4
19 18:56 NE 19 16.09 Fair CLR 29.4 16.7 46% 30 76.84 1023.4
19 17:56 NE 17 16.09 Mostly Cloudy BKN060 30.6 16.7 43% 31 76.84 1023.3
19 16:56 E 19 16.09 A Few Clouds FEW055 30.6 16.1 42% 31 76.86 1023.6
19 15:56 E 20 G 31 16.09 Partly Cloudy SCT050 30 16.1 43% 30 76.89 1024.1
19 14:56 E 20 G 31 16.09 Partly Cloudy SCT050 28.9 15.6 44% 29 76.91 1024.5
19 13:56 SE 19 16.09 Partly Cloudy SCT049 29.4 16.1 29.4 21.7 45% 30 76.96 1025.1
19 12:56 E 19 16.09 Mostly Cloudy BKN043 27.2 15.6 49% 28 77.01 1025.6
19 11:56 E 20 G 33 16.09 Partly Cloudy SCT040 27.2 16.7 53% 28 77.01 1025.7
19 10:56 E 15 16.09 Mostly Cloudy BKN029 BKN037 26.7 17.8 58% 28 77.01 1025.7
19 09:56 E 20 16.09 Fair CLR 25 17.8 64% 26 77.01 1025.8
19 08:56 NE 19 16.09 Fair CLR 23.9 17.8 69% 25 77.01 1025.8
19 07:56 NE 11 16.09 Partly Cloudy SCT047 21.7 17.2 22.8 20 76% 76.96 1025.2
19 06:56 N 6 16.09 Fair CLR 20 16.7 81% 76.91 1024.5
19 05:56 NE 11 16.09 Fair CLR 20 16.7 81% 76.86 1023.5
19 04:56 E 9 16.09 Fair CLR 20 16.1 78% 76.81 1023.1
19 03:56 E 7 16.09 Fair CLR 20.6 16.7 78% 76.78 1022.5
19 02:56 E 9 16.09 Fair CLR 21.7 16.1 71% 76.76 1022.2
19 01:56 SE 9 16.09 Fair CLR 22.8 16.7 28.3 22.2 69% 76.76 1022.3
19 00:56 SE 13 16.09 Fair CLR 23.3 17.2 69% 76.76 1022.3
18 23:56 E 11 16.09 Fair CLR 23.3 17.8 71% 76.73 1021.9
18 22:56 NE 9 16.09 Fair CLR 24.4 17.8 67% 25 76.71 1021.6
18 21:56 NE 9 16.09 Fair CLR 25 17.8 64% 26 76.68 1021.4
18 20:56 NE 7 16.09 Fair CLR 26.1 17.2 58% 27 76.66 1020.9
18 19:56 E 15 16.09 Fair CLR 28.3 16.7 31.7 28.3 49% 29 76.63 1020.8
18 18:56 E 17 16.09 Fair CLR 28.9 16.7 48% 29 76.63 1020.5
18 17:56 SE 15 16.09 A Few Clouds FEW055 30 17.2 46% 30 76.63 1020.7
18 16:56 E 19 G 37 16.09 Partly Cloudy FEW050 SCT060 30 16.1 43% 30 76.66 1020.9
18 15:56 NE 22 G 37 16.09 Partly Cloudy FEW041 SCT055 30.6 18.9 50% 32 76.68 1021.3
18 14:56 E 20 16.09 A Few Clouds FEW040 30.6 18.9 50% 32 76.71 1021.6
18 13:56 E 19 16.09 Partly Cloudy FEW040 SCT049 29.4 18.9 30 23.3 53% 31 76.73 1021.9
Date Time (edt) Wind (kph) Vis. (km) Weather Sky Cond. Air Dwpt Max. Min. Relative Humidity Wind Chill (°C) Heat Index (°C) altimeter (cm) sea level (mb) 1 hr 3 hr 6 hr
6 hour
Temperature (ºC) Pressure Precipitation (cm)